When you browse on this site, cookies collect data to enhance your experience and personalize the content and advertising you see.
Visit our Privacy Policy to learn more. By continuing to use the site, you agree to this use of cookies and data.
  • In Österreich
  • Länderverzeichnis
  • Für 7 Tage
  • Wassertemperatur
  • Wetterkarte
  • News
  • Widgets
  • user-avatar
    Anmelden

    Stündliche Wetter Wiesbaden

    Heute, 27 Mai, Mittwoch

    Zeit Temperatur Niederschläge Wind Luftdruck Luftfeuchtigkeit
    00:00 +13°C° 0 mm 1 m/S 761 mmHg 75%
    01:00 +12°C° 0 mm 0 m/S 761 mmHg 74%
    02:00 +11°C° 0 mm 0 m/S 761 mmHg 76%
    03:00 +11°C° 0 mm 0 m/S 761 mmHg 78%
    04:00 +11°C° 0 mm 1 m/S 761 mmHg 80%
    05:00 +13°C° 0 mm 1 m/S 761 mmHg 75%
    06:00 +14°C° 0 mm 1 m/S 761 mmHg 71%
    07:00 +15°C° 0 mm 1 m/S 761 mmHg 67%
    08:00 +16°C° 0 mm 0 m/S 761 mmHg 60%
    09:00 +18°C° 0 mm 0 m/S 761 mmHg 54%
    10:00 +20°C° 0 mm 0 m/S 761 mmHg 47%
    11:00 +23°C° 0 mm 1 m/S 761 mmHg 43%
    12:00 +24°C° 0 mm 1 m/S 760 mmHg 40%
    13:00 +25°C° 0 mm 1 m/S 760 mmHg 37%
    14:00 +25°C° 0 mm 1 m/S 760 mmHg 38%
    15:00 +25°C° 0 mm 1 m/S 759 mmHg 38%
    16:00 +25°C° 0 mm 1 m/S 759 mmHg 39%
    17:00 +24°C° 0 mm 1 m/S 759 mmHg 45%
    18:00 +23°C° 0 mm 1 m/S 758 mmHg 50%
    19:00 +21°C° 0 mm 2 m/S 758 mmHg 56%
    20:00 +19°C° 0 mm 2 m/S 758 mmHg 63%
    21:00 +18°C° 0 mm 2 m/S 759 mmHg 69%
    22:00 +16°C° 0 mm 2 m/S 759 mmHg 75%
    23:00 +16°C° 0 mm 2 m/S 759 mmHg 79%

    Morgen, 28 Mai, Donnerstag

    Zeit Temperatur Niederschläge Wind Luftdruck Luftfeuchtigkeit
    00:00 +15°C° 0 mm 2 m/S 759 mmHg 83%
    01:00 +14°C° 0 mm 2 m/S 759 mmHg 87%
    02:00 +12°C° 0 mm 3 m/S 759 mmHg 87%
    03:00 +12°C° 0 mm 3 m/S 759 mmHg 88%
    04:00 +11°C° 0 mm 3 m/S 759 mmHg 88%
    05:00 +11°C° 0 mm 3 m/S 759 mmHg 82%
    06:00 +12°C° 0 mm 3 m/S 759 mmHg 75%
    07:00 +12°C° 0 mm 4 m/S 759 mmHg 69%
    08:00 +13°C° 0 mm 4 m/S 760 mmHg 62%
    09:00 +14°C° 0 mm 4 m/S 760 mmHg 55%
    10:00 +17°C° 0 mm 4 m/S 760 mmHg 48%
    11:00 +18°C° 0 mm 4 m/S 759 mmHg 44%
    12:00 +19°C° 0 mm 3 m/S 759 mmHg 40%
    13:00 +20°C° 0 mm 3 m/S 759 mmHg 36%
    14:00 +20°C° 0 mm 3 m/S 758 mmHg 35%
    15:00 +21°C° 0 mm 3 m/S 758 mmHg 35%
    16:00 +21°C° 0 mm 3 m/S 758 mmHg 35%
    17:00 +20°C° 0 mm 3 m/S 757 mmHg 40%
    18:00 +19°C° 0 mm 3 m/S 757 mmHg 45%
    19:00 +18°C° 0 mm 3 m/S 757 mmHg 51%
    20:00 +16°C° 0 mm 3 m/S 757 mmHg 56%
    21:00 +14°C° 0 mm 3 m/S 757 mmHg 62%
    22:00 +13°C° 0 mm 2 m/S 758 mmHg 68%
    23:00 +12°C° 0 mm 2 m/S 758 mmHg 72%

    übermorgen, 29 Mai, Freitag

    Zeit Temperatur Niederschläge Wind Luftdruck Luftfeuchtigkeit
    00:00 +10°C° 0 mm 2 m/S 757 mmHg 76%
    01:00 +9°C° 0 mm 2 m/S 757 mmHg 80%
    02:00 +9°C° 0 mm 2 m/S 757 mmHg 82%
    03:00 +8°C° 0 mm 2 m/S 757 mmHg 83%
    04:00 +8°C° 0 mm 2 m/S 757 mmHg 85%
    05:00 +9°C° 0 mm 2 m/S 757 mmHg 81%
    06:00 +10°C° 0 mm 2 m/S 757 mmHg 77%
    07:00 +12°C° 0 mm 2 m/S 757 mmHg 73%
    08:00 +13°C° 0 mm 3 m/S 756 mmHg 66%
    09:00 +16°C° 0 mm 3 m/S 756 mmHg 58%
    10:00 +17°C° 0 mm 3 m/S 756 mmHg 51%
    11:00 +18°C° 0 mm 4 m/S 756 mmHg 48%
    12:00 +19°C° 0 mm 4 m/S 755 mmHg 45%
    13:00 +20°C° 0 mm 4 m/S 755 mmHg 42%
    14:00 +20°C° 0 mm 4 m/S 755 mmHg 41%
    15:00 +21°C° 0 mm 4 m/S 754 mmHg 40%
    16:00 +21°C° 0 mm 4 m/S 754 mmHg 39%
    17:00 +20°C° 0 mm 4 m/S 753 mmHg 43%
    18:00 +19°C° 0 mm 4 m/S 753 mmHg 47%
    19:00 +18°C° 0 mm 4 m/S 753 mmHg 51%
    20:00 +15°C° 0 mm 4 m/S 754 mmHg 53%
    21:00 +14°C° 0 mm 4 m/S 754 mmHg 55%
    22:00 +13°C° 0 mm 3 m/S 754 mmHg 56%
    23:00 +12°C° 0 mm 3 m/S 754 mmHg 59%

    30 Mai, Samstag

    Zeit Temperatur Niederschläge Wind Luftdruck Luftfeuchtigkeit
    00:00 +11°C° 0 mm 3 m/S 754 mmHg 62%
    01:00 +10°C° 0 mm 2 m/S 754 mmHg 65%
    02:00 +10°C° 0 mm 2 m/S 754 mmHg 69%
    03:00 +9°C° 0 mm 2 m/S 754 mmHg 72%
    04:00 +9°C° 0 mm 2 m/S 754 mmHg 75%
    05:00 +10°C° 0 mm 2 m/S 754 mmHg 70%
    06:00 +11°C° 0 mm 3 m/S 754 mmHg 65%
    07:00 +12°C° 0 mm 3 m/S 754 mmHg 60%
    08:00 +13°C° 0 mm 3 m/S 754 mmHg 54%
    09:00 +15°C° 0 mm 4 m/S 754 mmHg 49%
    10:00 +18°C° 0 mm 4 m/S 754 mmHg 43%
    11:00 +19°C° 0 mm 4 m/S 754 mmHg 41%
    12:00 +19°C° 0 mm 4 m/S 754 mmHg 39%
    13:00 +20°C° 0 mm 4 m/S 753 mmHg 37%
    14:00 +20°C° 0 mm 4 m/S 753 mmHg 38%
    15:00 +20°C° 0 mm 4 m/S 753 mmHg 39%
    16:00 +21°C° 0 mm 4 m/S 752 mmHg 41%
    17:00 +20°C° 0 mm 3 m/S 752 mmHg 46%
    18:00 +19°C° 0 mm 3 m/S 752 mmHg 50%
    19:00 +18°C° 0 mm 3 m/S 752 mmHg 55%
    20:00 +17°C° 0 mm 2 m/S 752 mmHg 61%
    21:00 +15°C° 0 mm 2 m/S 753 mmHg 67%
    22:00 +14°C° 0 mm 2 m/S 753 mmHg 72%
    23:00 +13°C° 0 mm 1 m/S 753 mmHg 75%

    31 Mai, Sonntag

    Zeit Temperatur Niederschläge Wind Luftdruck Luftfeuchtigkeit
    00:00 +12°C° 0 mm 1 m/S 753 mmHg 77%
    01:00 +12°C° 0 mm 1 m/S 753 mmHg 80%
    02:00 +12°C° 0 mm 1 m/S 753 mmHg 81%
    03:00 +11°C° 0 mm 1 m/S 753 mmHg 83%
    04:00 +11°C° 0 mm 1 m/S 753 mmHg 84%
    05:00 +12°C° 0 mm 1 m/S 753 mmHg 80%
    06:00 +13°C° 0 mm 2 m/S 753 mmHg 76%
    07:00 +14°C° 0 mm 2 m/S 753 mmHg 72%
    08:00 +15°C° 0 mm 2 m/S 753 mmHg 63%
    09:00 +16°C° 0 mm 3 m/S 753 mmHg 55%
    10:00 +18°C° 0 mm 3 m/S 753 mmHg 46%
    11:00 +19°C° 0 mm 3 m/S 752 mmHg 44%
    12:00 +20°C° 0 mm 3 m/S 752 mmHg 42%
    13:00 +21°C° 0 mm 3 m/S 752 mmHg 41%
    14:00 +21°C° 0 mm 3 m/S 752 mmHg 42%
    15:00 +21°C° 0 mm 3 m/S 751 mmHg 44%
    16:00 +21°C° 0 mm 3 m/S 751 mmHg 46%
    17:00 +20°C° 0 mm 3 m/S 751 mmHg 51%
    18:00 +19°C° 0 mm 3 m/S 751 mmHg 55%
    19:00 +18°C° 0 mm 2 m/S 751 mmHg 59%
    20:00 +17°C° 0 mm 2 m/S 751 mmHg 64%
    21:00 +16°C° 0 mm 2 m/S 751 mmHg 69%
    22:00 +14°C° 0 mm 2 m/S 752 mmHg 74%
    23:00 +14°C° 0 mm 1 m/S 752 mmHg 77%

    1 Juni, Montag

    Zeit Temperatur Niederschläge Wind Luftdruck Luftfeuchtigkeit
    00:00 +13°C° 0 mm 1 m/S 752 mmHg 81%
    01:00 +12°C° 0 mm 1 m/S 752 mmHg 84%
    02:00 +12°C° 0 mm 1 m/S 751 mmHg 85%
    03:00 +12°C° 0 mm 1 m/S 751 mmHg 86%
    04:00 +11°C° 0 mm 1 m/S 751 mmHg 87%
    05:00 +12°C° 0 mm 1 m/S 751 mmHg 84%
    06:00 +13°C° 0 mm 1 m/S 751 mmHg 80%
    07:00 +14°C° 0 mm 1 m/S 751 mmHg 77%
    08:00 +16°C° 0 mm 2 m/S 751 mmHg 70%
    09:00 +18°C° 0 mm 2 m/S 751 mmHg 64%
    10:00 +19°C° 0 mm 2 m/S 750 mmHg 57%
    11:00 +20°C° 0 mm 2 m/S 750 mmHg 54%
    12:00 +22°C° 0 mm 3 m/S 750 mmHg 51%
    13:00 +24°C° 0 mm 3 m/S 749 mmHg 48%
    14:00 +24°C° 0 mm 3 m/S 749 mmHg 49%
    15:00 +24°C° 0 mm 3 m/S 749 mmHg 49%
    16:00 +25°C° 0 mm 3 m/S 748 mmHg 49%
    17:00 +24°C° 0 mm 3 m/S 748 mmHg 54%
    18:00 +22°C° 0 mm 3 m/S 748 mmHg 59%
    19:00 +23°C° 0 mm 2 m/S 748 mmHg 64%
    20:00 +20°C° 0 mm 2 m/S 748 mmHg 69%
    21:00 +19°C° 0 mm 2 m/S 748 mmHg 74%
    22:00 +18°C° 0 mm 2 m/S 748 mmHg 79%
    23:00 +17°C° 0 mm 2 m/S 748 mmHg 81%
    Mehr zeigen